TimeCST,TemperatureF,Dew PointF,Humidity,Sea Level PressureIn,VisibilityMPH,Wind Direction,Wind SpeedMPH,Gust SpeedMPH,PrecipitationIn,Events,Conditions,WindDirDegrees,DateUTC
12:05 AM,19.4,15.8,86,30.28,10.0,North,5.8,-,N/A,,Scattered Clouds,350,2013-03-06 06:05:00
12:26 AM,19.4,15.8,86,30.28,10.0,North,8.1,-,N/A,,Mostly Cloudy,350,2013-03-06 06:26:00
12:45 AM,19.4,15.8,86,30.29,10.0,North,6.9,-,N/A,,Overcast,360,2013-03-06 06:45:00
1:05 AM,19.4,15.8,86,30.30,10.0,North,6.9,-,N/A,,Overcast,360,2013-03-06 07:05:00
1:26 AM,21.2,17.6,86,30.31,10.0,North,5.8,-,N/A,,Overcast,350,2013-03-06 07:26:00
1:45 AM,21.2,17.6,86,30.32,10.0,NNW,5.8,-,N/A,,Overcast,340,2013-03-06 07:45:00
2:05 AM,21.2,17.6,86,30.33,7.0,NW,4.6,-,N/A,,Overcast,320,2013-03-06 08:05:00
2:25 AM,19.4,17.6,93,30.32,3.0,WNW,4.6,-,N/A,Snow,Light Snow,300,2013-03-06 08:25:00
2:45 AM,19.4,17.6,93,30.32,4.0,WNW,3.5,-,N/A,Snow,Light Snow,300,2013-03-06 08:45:00
3:06 AM,19.4,17.6,93,30.32,7.0,WNW,4.6,-,N/A,,Overcast,300,2013-03-06 09:06:00
3:25 AM,21.2,17.6,86,30.32,10.0,NNW,9.2,-,N/A,,Overcast,330,2013-03-06 09:25:00
3:45 AM,21.2,17.6,86,30.32,10.0,NW,6.9,-,N/A,,Overcast,320,2013-03-06 09:45:00
4:06 AM,21.2,17.6,86,30.33,10.0,NW,9.2,-,N/A,,Overcast,320,2013-03-06 10:06:00
4:25 AM,21.2,17.6,86,30.33,10.0,NW,8.1,-,N/A,,Overcast,320,2013-03-06 10:25:00
4:45 AM,19.4,15.8,86,30.34,10.0,NNW,10.4,-,N/A,,Overcast,340,2013-03-06 10:45:00
5:06 AM,-9999,15.8,N/A,30.34,10.0,NNW,10.4,-,N/A,,Overcast,330,2013-03-06 11:06:00
5:25 AM,19.4,15.8,86,30.35,-9999.0,NW,10.4,-,N/A,,Overcast,320,2013-03-06 11:25:00
5:45 AM,19.4,15.8,86,30.36,10.0,NW,12.7,-,N/A,,Overcast,320,2013-03-06 11:45:00
6:06 AM,19.4,15.8,86,30.37,10.0,NNW,9.2,-,N/A,,Overcast,330,2013-03-06 12:06:00
6:25 AM,19.4,15.8,86,30.38,10.0,North,10.4,-,N/A,,Overcast,350,2013-03-06 12:25:00
6:45 AM,19.4,15.8,86,30.38,10.0,North,10.4,-,N/A,,Overcast,350,2013-03-06 12:45:00
7:06 AM,19.4,15.8,86,30.38,10.0,NNW,11.5,-,N/A,,Overcast,340,2013-03-06 13:06:00
7:25 AM,19.4,15.8,86,30.39,10.0,NNW,9.2,-,N/A,,Overcast,340,2013-03-06 13:25:00
7:45 AM,19.4,15.8,86,30.39,10.0,NNW,8.1,-,N/A,,Overcast,340,2013-03-06 13:45:00
8:06 AM,19.4,14.0,80,30.39,10.0,NNW,12.7,-,N/A,,Overcast,340,2013-03-06 14:06:00
8:25 AM,19.4,14.0,80,30.39,10.0,North,10.4,-,N/A,,Overcast,350,2013-03-06 14:25:00
8:45 AM,19.4,14.0,80,30.40,10.0,NNW,11.5,-,N/A,,Overcast,330,2013-03-06 14:45:00
9:05 AM,19.4,14.0,80,30.40,10.0,NNW,9.2,-,N/A,,Overcast,340,2013-03-06 15:05:00
9:25 AM,19.4,15.8,86,30.40,10.0,NW,10.4,-,N/A,,Overcast,320,2013-03-06 15:25:00
9:45 AM,21.2,15.8,80,30.40,10.0,North,9.2,-,N/A,,Overcast,350,2013-03-06 15:45:00
10:05 AM,21.2,15.8,80,30.40,10.0,North,5.8,-,N/A,,Overcast,350,2013-03-06 16:05:00
10:25 AM,21.2,15.8,80,30.39,10.0,NNW,6.9,-,N/A,,Overcast,340,2013-03-06 16:25:00
10:45 AM,21.2,15.8,80,30.39,10.0,NNW,6.9,-,N/A,,Overcast,340,2013-03-06 16:45:00
11:05 AM,21.2,15.8,80,30.39,10.0,North,8.1,-,N/A,,Overcast,360,2013-03-06 17:05:00
11:26 AM,23.0,15.8,74,30.39,10.0,North,8.1,-,N/A,,Overcast,350,2013-03-06 17:26:00
11:45 AM,23.0,15.8,74,30.39,10.0,North,9.2,-,N/A,,Overcast,360,2013-03-06 17:45:00
12:05 PM,23.0,15.8,74,30.38,10.0,NNW,3.5,-,N/A,,Overcast,340,2013-03-06 18:05:00
12:26 PM,23.0,15.8,74,30.38,10.0,NNE,4.6,-,N/A,,Overcast,20,2013-03-06 18:26:00
12:45 PM,24.8,15.8,69,30.37,10.0,North,3.5,-,N/A,,Overcast,10,2013-03-06 18:45:00
1:05 PM,26.6,15.8,64,30.36,10.0,NW,6.9,-,N/A,,Overcast,310,2013-03-06 19:05:00
1:25 PM,26.6,15.8,64,30.36,10.0,NW,4.6,-,N/A,,Overcast,310,2013-03-06 19:25:00
1:45 PM,28.4,17.6,64,30.35,10.0,WNW,4.6,-,N/A,,Overcast,290,2013-03-06 19:45:00
2:05 PM,26.6,15.8,64,30.35,10.0,NNW,3.5,-,N/A,,Overcast,340,2013-03-06 20:05:00
2:25 PM,24.8,15.8,69,30.34,10.0,Calm,Calm,-,N/A,,Mostly Cloudy,0,2013-03-06 20:25:00
2:45 PM,26.6,15.8,64,30.34,10.0,Calm,Calm,-,N/A,,Overcast,0,2013-03-06 20:45:00
3:05 PM,24.8,15.8,69,30.33,10.0,NNE,3.5,-,N/A,,Scattered Clouds,20,2013-03-06 21:05:00
3:25 PM,26.6,15.8,64,30.34,10.0,Calm,Calm,-,N/A,,Scattered Clouds,0,2013-03-06 21:25:00
3:45 PM,26.6,17.6,69,30.34,10.0,Calm,Calm,-,N/A,,Overcast,0,2013-03-06 21:45:00
4:05 PM,26.6,17.6,69,30.33,10.0,West,4.6,-,N/A,,Mostly Cloudy,280,2013-03-06 22:05:00
4:25 PM,26.6,17.6,69,30.33,10.0,West,5.8,-,N/A,,Mostly Cloudy,280,2013-03-06 22:25:00
4:46 PM,26.6,17.6,69,30.33,10.0,West,6.9,-,N/A,,Overcast,270,2013-03-06 22:46:00
5:05 PM,24.8,15.8,69,30.33,10.0,West,5.8,-,N/A,,Overcast,270,2013-03-06 23:05:00
5:25 PM,24.8,15.8,69,30.33,10.0,West,6.9,-,N/A,,Overcast,270,2013-03-06 23:25:00
5:46 PM,23.0,15.8,74,30.33,10.0,West,5.8,-,N/A,,Mostly Cloudy,270,2013-03-06 23:46:00
6:05 PM,21.2,15.8,80,30.34,10.0,West,5.8,-,N/A,,Mostly Cloudy,270,2013-03-07 00:05:00
6:25 PM,17.6,12.2,79,30.33,10.0,WNW,5.8,-,N/A,,Scattered Clouds,290,2013-03-07 00:25:00
6:46 PM,19.4,14.0,80,30.34,10.0,West,4.6,-,N/A,,Clear,270,2013-03-07 00:46:00
7:05 PM,19.4,14.0,80,30.34,10.0,West,4.6,-,N/A,,Clear,260,2013-03-07 01:05:00
7:25 PM,17.6,14.0,86,30.34,10.0,West,4.6,-,N/A,,Clear,260,2013-03-07 01:25:00
7:46 PM,10.4,6.8,85,30.34,10.0,WNW,4.6,-,N/A,,Clear,290,2013-03-07 01:46:00
8:05 PM,14.0,12.2,93,30.34,10.0,WNW,3.5,-,N/A,,Clear,290,2013-03-07 02:05:00
8:25 PM,14.0,12.2,93,30.33,10.0,WNW,3.5,-,N/A,,Clear,300,2013-03-07 02:25:00
8:45 PM,8.6,6.8,92,30.33,10.0,Calm,Calm,-,N/A,,Clear,0,2013-03-07 02:45:00
9:06 PM,14.0,12.2,93,30.33,10.0,Calm,Calm,-,N/A,,Clear,0,2013-03-07 03:06:00
9:25 PM,8.6,8.6,100,30.34,10.0,Calm,Calm,-,N/A,,Clear,0,2013-03-07 03:25:00
9:45 PM,5.0,3.2,92,30.34,5.0,Calm,Calm,-,N/A,,Clear,0,2013-03-07 03:45:00
10:06 PM,6.8,5.0,92,30.34,1.0,Calm,Calm,-,N/A,,Mist,0,2013-03-07 04:06:00
10:25 PM,6.8,5.0,92,30.34,5.0,Calm,Calm,-,N/A,,Clear,0,2013-03-07 04:25:00
10:45 PM,3.2,1.4,92,30.35,3.0,Calm,Calm,-,N/A,,Clear,0,2013-03-07 04:45:00
11:05 PM,3.2,1.4,92,30.35,1.5,Calm,Calm,-,N/A,,Mist,0,2013-03-07 05:05:00
11:25 PM,1.4,-2.2,85,30.35,3.0,Calm,Calm,-,N/A,,Clear,0,2013-03-07 05:25:00
11:45 PM,1.4,-2.2,85,30.35,4.0,Calm,Calm,-,N/A,,Clear,0,2013-03-07 05:45:00